Location: Arrien
(43.3167°N, 0.1500°W)
Time: 04:58:36
(UTC+00:00)

Landsat 5 - Pass Details

Date: 15 October 2021
Orbit: 528 x 652 km, 98.2° (Epoch: 02 December)

Event Time Altitude Azimuth Distance (km) Brightness Sun altitude
Rises 17:39:27 0° 21° (NNE) 2,869 6.7 -4.8°
Reaches altitude 10° 17:41:43 10° 29° (NNE) 1,981 5.8 -5.2°
Maximum altitude 17:45:47 39° 99° (E) 941 4.1 -5.9°
Drops below altitude 10° 17:49:56 10° 168° (SSE) 2,024 6.2 -6.7°
Sets 17:52:16 0° 176° (S) 2,940 7.1 -7.1°
